����������;��������(kWh)
2018-06-18 00:00;92,75
2018-06-18 00:15;92
2018-06-18 00:30;90,45
2018-06-18 00:45;89,9
2018-06-18 01:00;89,6
2018-06-18 01:15;88,7
2018-06-18 01:30;86,65
2018-06-18 01:45;87,35
2018-06-18 02:00;86,3
2018-06-18 02:15;85,8
2018-06-18 02:30;86,05
2018-06-18 02:45;86,4
2018-06-18 03:00;88,9
2018-06-18 03:15;92,5
2018-06-18 03:30;92,95
2018-06-18 03:45;91,85
2018-06-18 04:00;93,7
2018-06-18 04:15;86,6
2018-06-18 04:30;84,55
2018-06-18 04:45;83,65
2018-06-18 05:00;83,75
2018-06-18 05:15;84,95
2018-06-18 05:30;86,6
2018-06-18 05:45;88,9
2018-06-18 06:00;87,95
2018-06-18 06:15;88
2018-06-18 06:30;88,2
2018-06-18 06:45;89,4
2018-06-18 07:00;89,85
2018-06-18 07:15;90,5
2018-06-18 07:30;90,75
2018-06-18 07:45;150,9
2018-06-18 08:00;163,8
2018-06-18 08:15;140,45
2018-06-18 08:30;142,8
2018-06-18 08:45;172,85
2018-06-18 09:00;187,8
2018-06-18 09:15;199,9
2018-06-18 09:30;195
2018-06-18 09:45;192,3
2018-06-18 10:00;210,75
2018-06-18 10:15;215,15
2018-06-18 10:30;220,4
2018-06-18 10:45;224,8
2018-06-18 11:00;221,85
2018-06-18 11:15;237,8
2018-06-18 11:30;247,1
2018-06-18 11:45;253,35
2018-06-18 12:00;248,3
2018-06-18 12:15;251,8
2018-06-18 12:30;243
2018-06-18 12:45;246,95
2018-06-18 13:00;245,8
2018-06-18 13:15;247,5
2018-06-18 13:30;254,75
2018-06-18 13:45;257,85
2018-06-18 14:00;256,65
2018-06-18 14:15;254,2
2018-06-18 14:30;251,7
2018-06-18 14:45;260,7
2018-06-18 15:00;247,4
2018-06-18 15:15;244,55
2018-06-18 15:30;244,15
2018-06-18 15:45;226,1
2018-06-18 16:00;216,8
2018-06-18 16:15;216,5
2018-06-18 16:30;203,8
2018-06-18 16:45;206,6
2018-06-18 17:00;207,65
2018-06-18 17:15;206,6
2018-06-18 17:30;197,4
2018-06-18 17:45;192,25
2018-06-18 18:00;189,55
2018-06-18 18:15;172,9
2018-06-18 18:30;165,85
2018-06-18 18:45;163,5
2018-06-18 19:00;159,75
2018-06-18 19:15;156,8
2018-06-18 19:30;152,65
2018-06-18 19:45;154,1
2018-06-18 20:00;142,2
2018-06-18 20:15;139,85
2018-06-18 20:30;135,55
2018-06-18 20:45;134,8
2018-06-18 21:00;134,75
2018-06-18 21:15;134,75
2018-06-18 21:30;133,1
2018-06-18 21:45;127,5
2018-06-18 22:00;123,95
2018-06-18 22:15;119,05
2018-06-18 22:30;116
2018-06-18 22:45;114,1
2018-06-18 23:00;117,7
2018-06-18 23:15;117,2
2018-06-18 23:30;114,45
2018-06-18 23:45;114,6
2018-06-19 00:00;112,65
2018-06-19 00:15;105,65
2018-06-19 00:30;104,35
2018-06-19 00:45;103,1
2018-06-19 01:00;94,1
2018-06-19 01:15;91,6
2018-06-19 01:30;89,7
2018-06-19 01:45;91,95
2018-06-19 02:00;90,7
2018-06-19 02:15;92,3
2018-06-19 02:30;90,7
2018-06-19 02:45;90,8
2018-06-19 03:00;90,65
2018-06-19 03:15;90,45
2018-06-19 03:30;92
2018-06-19 03:45;90,1
2018-06-19 04:00;89,95
2018-06-19 04:15;89,8
2018-06-19 04:30;89,3
2018-06-19 04:45;88,8
2018-06-19 05:00;88,7
2018-06-19 05:15;88,7
2018-06-19 05:30;90,6
2018-06-19 05:45;90,8
2018-06-19 06:00;91,6
2018-06-19 06:15;92,35
2018-06-19 06:30;89,65
2018-06-19 06:45;88,95
2018-06-19 07:00;89,8
2018-06-19 07:15;89,6
2018-06-19 07:30;92,65
2018-06-19 07:45;150,3
2018-06-19 08:00;150,1
2018-06-19 08:15;116,2
2018-06-19 08:30;137,4
2018-06-19 08:45;154,85
2018-06-19 09:00;185,65
2018-06-19 09:15;182
2018-06-19 09:30;183,6
2018-06-19 09:45;195,3
2018-06-19 10:00;201,5
2018-06-19 10:15;203,4
2018-06-19 10:30;207,8
2018-06-19 10:45;223,15
2018-06-19 11:00;224,65
2018-06-19 11:15;221,45
2018-06-19 11:30;228,45
2018-06-19 11:45;230,95
2018-06-19 12:00;230,1
2018-06-19 12:15;234,25
2018-06-19 12:30;231,15
2018-06-19 12:45;240
2018-06-19 13:00;238,45
2018-06-19 13:15;247,45
2018-06-19 13:30;240,25
2018-06-19 13:45;242,3
2018-06-19 14:00;247,9
2018-06-19 14:15;242,75
2018-06-19 14:30;235,25
2018-06-19 14:45;234,9
2018-06-19 15:00;234,6
2018-06-19 15:15;235,7
2018-06-19 15:30;230,5
2018-06-19 15:45;221,1
2018-06-19 16:00;217,3
2018-06-19 16:15;213,25
2018-06-19 16:30;207,45
2018-06-19 16:45;205,45
2018-06-19 17:00;195,95
2018-06-19 17:15;193,4
2018-06-19 17:30;192,4
2018-06-19 17:45;175,3
2018-06-19 18:00;176,6
2018-06-19 18:15;158,65
2018-06-19 18:30;153,45
2018-06-19 18:45;154,4
2018-06-19 19:00;154,3
2018-06-19 19:15;147,65
2018-06-19 19:30;144,45
2018-06-19 19:45;150,05
2018-06-19 20:00;145,2
2018-06-19 20:15;142
2018-06-19 20:30;136,55
2018-06-19 20:45;136,7
2018-06-19 21:00;139,5
2018-06-19 21:15;136,3
2018-06-19 21:30;136,05
2018-06-19 21:45;123,1
2018-06-19 22:00;114,75
2018-06-19 22:15;114,45
2018-06-19 22:30;114,35
2018-06-19 22:45;110,75
2018-06-19 23:00;114,75
2018-06-19 23:15;110
2018-06-19 23:30;109,9
2018-06-19 23:45;111,55
2018-06-20 00:00;103,15
2018-06-20 00:15;103,95
2018-06-20 00:30;103,8
2018-06-20 00:45;102,75
2018-06-20 01:00;103,7
2018-06-20 01:15;99,55
2018-06-20 01:30;99,95
2018-06-20 01:45;98,25
2018-06-20 02:00;99,1
2018-06-20 02:15;91
2018-06-20 02:30;90,75
2018-06-20 02:45;89,35
2018-06-20 03:00;89,45
2018-06-20 03:15;90,35
2018-06-20 03:30;89,35
2018-06-20 03:45;90
2018-06-20 04:00;89,25
2018-06-20 04:15;88,6
2018-06-20 04:30;87,25
2018-06-20 04:45;88,35
2018-06-20 05:00;88,5
2018-06-20 05:15;88,6
2018-06-20 05:30;96,35
2018-06-20 05:45;96,3
2018-06-20 06:00;97,6
2018-06-20 06:15;96,2
2018-06-20 06:30;94,45
2018-06-20 06:45;96,3
2018-06-20 07:00;98,35
2018-06-20 07:15;105,1
2018-06-20 07:30;107,8
2018-06-20 07:45;168,35
2018-06-20 08:00;165,85
2018-06-20 08:15;123,35
2018-06-20 08:30;140,7
2018-06-20 08:45;144,6
2018-06-20 09:00;149,8
2018-06-20 09:15;199,35
2018-06-20 09:30;218,8
2018-06-20 09:45;212,85
2018-06-20 10:00;207,85
2018-06-20 10:15;220
2018-06-20 10:30;232
2018-06-20 10:45;230
2018-06-20 11:00;230,25
2018-06-20 11:15;245,15
2018-06-20 11:30;258,7
2018-06-20 11:45;257,5
2018-06-20 12:00;252,9
2018-06-20 12:15;255,3
2018-06-20 12:30;264,9
2018-06-20 12:45;252,65
2018-06-20 13:00;259,55
2018-06-20 13:15;264,4
2018-06-20 13:30;273,95
2018-06-20 13:45;257,6
2018-06-20 14:00;260,95
2018-06-20 14:15;265,25
2018-06-20 14:30;259,8
2018-06-20 14:45;254,4
2018-06-20 15:00;246,65
2018-06-20 15:15;248,2
2018-06-20 15:30;241,3
2018-06-20 15:45;233,2
2018-06-20 16:00;224,25
2018-06-20 16:15;214,7
2018-06-20 16:30;210,25
2018-06-20 16:45;205,8
2018-06-20 17:00;202,85
2018-06-20 17:15;177,95
2018-06-20 17:30;189,1
2018-06-20 17:45;179,55
2018-06-20 18:00;176,8
2018-06-20 18:15;158,8
2018-06-20 18:30;156,2
2018-06-20 18:45;153,15
2018-06-20 19:00;153,15
2018-06-20 19:15;144,75
2018-06-20 19:30;137,4
2018-06-20 19:45;139,55
2018-06-20 20:00;128,45
2018-06-20 20:15;125,8
2018-06-20 20:30;126,95
2018-06-20 20:45;127,55
2018-06-20 21:00;126,75
2018-06-20 21:15;123,75
2018-06-20 21:30;123,9
2018-06-20 21:45;117,9
2018-06-20 22:00;115,7
2018-06-20 22:15;115,05
2018-06-20 22:30;116,15
2018-06-20 22:45;117,4
2018-06-20 23:00;111,95
2018-06-20 23:15;106,95
2018-06-20 23:30;104,4
2018-06-20 23:45;98,7
2018-06-21 00:00;92,25
2018-06-21 00:15;92,15
2018-06-21 00:30;93,45
2018-06-21 00:45;91,45
2018-06-21 01:00;90,9
2018-06-21 01:15;88,8
2018-06-21 01:30;89,3
2018-06-21 01:45;89,05
2018-06-21 02:00;86,95
2018-06-21 02:15;88,15
2018-06-21 02:30;87,15
2018-06-21 02:45;87,9
2018-06-21 03:00;87
2018-06-21 03:15;86,45
2018-06-21 03:30;87,3
2018-06-21 03:45;88,25
2018-06-21 04:00;88,45
2018-06-21 04:15;88,35
2018-06-21 04:30;87,5
2018-06-21 04:45;88,1
2018-06-21 05:00;88,05
2018-06-21 05:15;86,95
2018-06-21 05:30;87,15
2018-06-21 05:45;89,45
2018-06-21 06:00;93,25
2018-06-21 06:15;96,4
2018-06-21 06:30;96,9
2018-06-21 06:45;96,95
2018-06-21 07:00;97,4
2018-06-21 07:15;99,1
2018-06-21 07:30;104,1
2018-06-21 07:45;160,5
2018-06-21 08:00;154,6
2018-06-21 08:15;129,15
2018-06-21 08:30;159
2018-06-21 08:45;165,95
2018-06-21 09:00;156,45
2018-06-21 09:15;166,65
2018-06-21 09:30;176,9
2018-06-21 09:45;188,5
2018-06-21 10:00;216,7
2018-06-21 10:15;226
2018-06-21 10:30;228,4
2018-06-21 10:45;217,3
2018-06-21 11:00;222,4
2018-06-21 11:15;228,95
2018-06-21 11:30;237,3
2018-06-21 11:45;237,85
2018-06-21 12:00;241,15
2018-06-21 12:15;240,5
2018-06-21 12:30;239,75
2018-06-21 12:45;245,95
2018-06-21 13:00;239,5
2018-06-21 13:15;255,05
2018-06-21 13:30;246,2
2018-06-21 13:45;243,4
2018-06-21 14:00;261,7
2018-06-21 14:15;253
2018-06-21 14:30;249,25
2018-06-21 14:45;238,75
2018-06-21 15:00;239,3
2018-06-21 15:15;230,35
2018-06-21 15:30;218,75
2018-06-21 15:45;228,5
2018-06-21 16:00;215,85
2018-06-21 16:15;208,65
2018-06-21 16:30;201,5
2018-06-21 16:45;197,85
2018-06-21 17:00;200,6
2018-06-21 17:15;192,3
2018-06-21 17:30;199,65
2018-06-21 17:45;198,35
2018-06-21 18:00;182,9
2018-06-21 18:15;170,45
2018-06-21 18:30;162,65
2018-06-21 18:45;156,7
2018-06-21 19:00;158,45
2018-06-21 19:15;152,2
2018-06-21 19:30;148,95
2018-06-21 19:45;144,8
2018-06-21 20:00;136,4
2018-06-21 20:15;135,1
2018-06-21 20:30;135,3
2018-06-21 20:45;141,1
2018-06-21 21:00;142,85
2018-06-21 21:15;134,65
2018-06-21 21:30;129,5
2018-06-21 21:45;125,6
2018-06-21 22:00;110
2018-06-21 22:15;107,95
2018-06-21 22:30;107,1
2018-06-21 22:45;105,95
2018-06-21 23:00;96,8
2018-06-21 23:15;95,25
2018-06-21 23:30;94,6
2018-06-21 23:45;97,2
2018-06-22 00:00;93,25
2018-06-22 00:15;94,1
2018-06-22 00:30;91
2018-06-22 00:45;90,35
2018-06-22 01:00;90,4
2018-06-22 01:15;87,85
2018-06-22 01:30;88,75
2018-06-22 01:45;87,55
2018-06-22 02:00;88,55
2018-06-22 02:15;87,5
2018-06-22 02:30;87,85
2018-06-22 02:45;88,05
2018-06-22 03:00;87,65
2018-06-22 03:15;87,95
2018-06-22 03:30;89,3
2018-06-22 03:45;93,9
2018-06-22 04:00;94,7
2018-06-22 04:15;95,8
2018-06-22 04:30;96
2018-06-22 04:45;111,15
2018-06-22 05:00;108,6
2018-06-22 05:15;103,25
2018-06-22 05:30;100,4
2018-06-22 05:45;97,3
2018-06-22 06:00;97,15
2018-06-22 06:15;104,15
2018-06-22 06:30;105,95
2018-06-22 06:45;103,45
2018-06-22 07:00;106,65
2018-06-22 07:15;109,05
2018-06-22 07:30;108,5
2018-06-22 07:45;166,95
2018-06-22 08:00;163,35
2018-06-22 08:15;130,5
2018-06-22 08:30;144,4
2018-06-22 08:45;164,05
2018-06-22 09:00;167,45
2018-06-22 09:15;176,6
2018-06-22 09:30;188,6
2018-06-22 09:45;207,15
2018-06-22 10:00;220,3
2018-06-22 10:15;226,4
2018-06-22 10:30;228,7
2018-06-22 10:45;230,55
2018-06-22 11:00;239,85
2018-06-22 11:15;239,8
2018-06-22 11:30;242,9
2018-06-22 11:45;248,55
2018-06-22 12:00;255,85
2018-06-22 12:15;260,05
2018-06-22 12:30;260,75
2018-06-22 12:45;262,75
2018-06-22 13:00;265
2018-06-22 13:15;262,65
2018-06-22 13:30;258,6
2018-06-22 13:45;261,15
2018-06-22 14:00;254,9
2018-06-22 14:15;255,7
2018-06-22 14:30;252,35
2018-06-22 14:45;246,15
2018-06-22 15:00;244,85
2018-06-22 15:15;235,75
2018-06-22 15:30;226,35
2018-06-22 15:45;219,7
2018-06-22 16:00;215,25
2018-06-22 16:15;210,65
2018-06-22 16:30;202,65
2018-06-22 16:45;196,05
2018-06-22 17:00;192,5
2018-06-22 17:15;196,75
2018-06-22 17:30;196,5
2018-06-22 17:45;183,35
2018-06-22 18:00;182,35
2018-06-22 18:15;163,9
2018-06-22 18:30;159,6
2018-06-22 18:45;159,15
2018-06-22 19:00;159,6
2018-06-22 19:15;159,75
2018-06-22 19:30;157,75
2018-06-22 19:45;150,55
2018-06-22 20:00;139,4
2018-06-22 20:15;135,65
2018-06-22 20:30;133,15
2018-06-22 20:45;132,75
2018-06-22 21:00;132,4
2018-06-22 21:15;134,9
2018-06-22 21:30;135,95
2018-06-22 21:45;129,45
2018-06-22 22:00;123,4
2018-06-22 22:15;121,25
2018-06-22 22:30;114,05
2018-06-22 22:45;108
2018-06-22 23:00;108,2
2018-06-22 23:15;103,85
2018-06-22 23:30;98,9
2018-06-22 23:45;96,7
2018-06-23 00:00;94,4
2018-06-23 00:15;95,05
2018-06-23 00:30;94,85
2018-06-23 00:45;94,05
2018-06-23 01:00;93,7
2018-06-23 01:15;91,9
2018-06-23 01:30;88,75
2018-06-23 01:45;88,8
2018-06-23 02:00;89,15
2018-06-23 02:15;88,35
2018-06-23 02:30;88,55
2018-06-23 02:45;88,75
2018-06-23 03:00;89,2
2018-06-23 03:15;89,1
2018-06-23 03:30;89,4
2018-06-23 03:45;89,95
2018-06-23 04:00;90,25
2018-06-23 04:15;88
2018-06-23 04:30;90,4
2018-06-23 04:45;89,7
2018-06-23 05:00;88,05
2018-06-23 05:15;87,45
2018-06-23 05:30;88,65
2018-06-23 05:45;88,5
2018-06-23 06:00;89,8
2018-06-23 06:15;87,65
2018-06-23 06:30;87,9
2018-06-23 06:45;86,3
2018-06-23 07:00;85,1
2018-06-23 07:15;84,7
2018-06-23 07:30;82,65
2018-06-23 07:45;81,7
2018-06-23 08:00;80,7
2018-06-23 08:15;84,55
2018-06-23 08:30;84,4
2018-06-23 08:45;90,5
2018-06-23 09:00;91,5
2018-06-23 09:15;93,45
2018-06-23 09:30;94,65
2018-06-23 09:45;96,05
2018-06-23 10:00;93,15
2018-06-23 10:15;90,2
2018-06-23 10:30;91,35
2018-06-23 10:45;91,75
2018-06-23 11:00;95,4
2018-06-23 11:15;95,95
2018-06-23 11:30;101,05
2018-06-23 11:45;98,5
2018-06-23 12:00;101,8
2018-06-23 12:15;101,8
2018-06-23 12:30;102,95
2018-06-23 12:45;104,95
2018-06-23 13:00;102,75
2018-06-23 13:15;100,95
2018-06-23 13:30;98,2
2018-06-23 13:45;99,4
2018-06-23 14:00;100,95
2018-06-23 14:15;101,75
2018-06-23 14:30;100,4
2018-06-23 14:45;103,2
2018-06-23 15:00;101,75
2018-06-23 15:15;100,35
2018-06-23 15:30;102,35
2018-06-23 15:45;102,65
2018-06-23 16:00;100,7
2018-06-23 16:15;100,2
2018-06-23 16:30;99,3
2018-06-23 16:45;101,1
2018-06-23 17:00;99,75
2018-06-23 17:15;98,25
2018-06-23 17:30;99,85
2018-06-23 17:45;98,4
2018-06-23 18:00;96,65
2018-06-23 18:15;96,8
2018-06-23 18:30;94,5
2018-06-23 18:45;98,5
2018-06-23 19:00;95,6
2018-06-23 19:15;95,2
2018-06-23 19:30;96,95
2018-06-23 19:45;104,25
2018-06-23 20:00;104,5
2018-06-23 20:15;103,9
2018-06-23 20:30;103,3
2018-06-23 20:45;105,05
2018-06-23 21:00;101,6
2018-06-23 21:15;104,75
2018-06-23 21:30;103,55
2018-06-23 21:45;99,9
2018-06-23 22:00;95,9
2018-06-23 22:15;95,65
2018-06-23 22:30;92,35
2018-06-23 22:45;93,75
2018-06-23 23:00;94,45
2018-06-23 23:15;93,75
2018-06-23 23:30;89,2
2018-06-23 23:45;92,25
2018-06-24 00:00;87,2
2018-06-24 00:15;88,35
2018-06-24 00:30;86,3
2018-06-24 00:45;85,9
2018-06-24 01:00;86,3
2018-06-24 01:15;85,2
2018-06-24 01:30;84,1
2018-06-24 01:45;83,4
2018-06-24 02:00;84,05
2018-06-24 02:15;82,3
2018-06-24 02:30;83,05
2018-06-24 02:45;83,3
2018-06-24 03:00;83,5
2018-06-24 03:15;83
2018-06-24 03:30;84,35
2018-06-24 03:45;84,05
2018-06-24 04:00;84,45
2018-06-24 04:15;84,95
2018-06-24 04:30;84,5
2018-06-24 04:45;84,9
2018-06-24 05:00;83,6
2018-06-24 05:15;83,9
2018-06-24 05:30;84,4
2018-06-24 05:45;86
2018-06-24 06:00;86,6
2018-06-24 06:15;83,7
2018-06-24 06:30;82,85
2018-06-24 06:45;81,45
2018-06-24 07:00;83,15
2018-06-24 07:15;81,25
2018-06-24 07:30;79,1
2018-06-24 07:45;80,35
2018-06-24 08:00;81,5
2018-06-24 08:15;82,35
2018-06-24 08:30;81,7
2018-06-24 08:45;83,35
2018-06-24 09:00;85,35
2018-06-24 09:15;88,8
2018-06-24 09:30;86,4
2018-06-24 09:45;88,55
2018-06-24 10:00;86,95
2018-06-24 10:15;88,45
2018-06-24 10:30;85,45
2018-06-24 10:45;86,85
2018-06-24 11:00;88,75
2018-06-24 11:15;89,1
2018-06-24 11:30;89,45
2018-06-24 11:45;87,7
2018-06-24 12:00;88,8
2018-06-24 12:15;95,9
2018-06-24 12:30;95,15
2018-06-24 12:45;96,8
2018-06-24 13:00;95,4
2018-06-24 13:15;95,6
2018-06-24 13:30;87,85
2018-06-24 13:45;89,65
2018-06-24 14:00;87,95
2018-06-24 14:15;90,9
2018-06-24 14:30;90,05
2018-06-24 14:45;91
2018-06-24 15:00;89,85
2018-06-24 15:15;92,3
2018-06-24 15:30;93,15
2018-06-24 15:45;93,3
2018-06-24 16:00;94
2018-06-24 16:15;92,55
2018-06-24 16:30;92,95
2018-06-24 16:45;92,25
2018-06-24 17:00;95,75
2018-06-24 17:15;93,45
2018-06-24 17:30;96,95
2018-06-24 17:45;96,3
2018-06-24 18:00;96,95
2018-06-24 18:15;95,15
2018-06-24 18:30;94,7
2018-06-24 18:45;93,7
2018-06-24 19:00;92,55
2018-06-24 19:15;93,9
2018-06-24 19:30;97
2018-06-24 19:45;96,65
2018-06-24 20:00;99,3
2018-06-24 20:15;95,95
2018-06-24 20:30;98,3
2018-06-24 20:45;100,65
2018-06-24 21:00;97,15
2018-06-24 21:15;101,95
2018-06-24 21:30;98,2
2018-06-24 21:45;95,9
2018-06-24 22:00;95,9
2018-06-24 22:15;93,7
2018-06-24 22:30;92,5
2018-06-24 22:45;93,35
2018-06-24 23:00;95,65
2018-06-24 23:15;98,6
2018-06-24 23:30;98,7
2018-06-24 23:45;100,7

